GW5351 Weather Reports


Display with metric or nautical units.
time (UTC)temp
F
wind
direction
speed
MPH
gust
MPH
rain 1hr
in
rain 24hr
in
rain mn
in
humidity
%
barometer
mb
20260504205623 85 174 2.0 7.0 0.00 0.00 0.00 54 1012.7
20260504205121 83 225 1.0 6.0 0.00 0.00 0.00 56 1012.7
20260504204619 82 104 3.0 6.0 0.00 0.00 0.00 56 1012.9
20260504204118 82 170 3.0 4.0 0.00 0.00 0.00 56 1012.9
20260504203616 81 227 1.0 4.0 0.00 0.00 0.00 58 1013.0
20260504203114 81 211 3.0 8.0 0.00 0.00 0.00 58 1013.0
20260504202609 82 264 2.0 4.0 0.00 0.00 0.00 58 1013.1
20260504202106 82 200 7.0 9.0 0.00 0.00 0.00 57 1013.2
20260504201603 82 223 4.0 6.0 0.00 0.00 0.00 57 1013.3
20260504201100 81 225 3.0 4.0 0.00 0.00 0.00 58 1013.6
20260504200556 81 250 3.0 4.0 0.00 0.00 0.00 58 1013.5
20260504200053 81 247 5.0 8.0 0.00 0.00 0.00 57 1013.7
20260504195549 80 188 1.0 8.0 0.00 0.00 0.00 58 1013.8
20260504195046 80 270 4.0 8.0 0.00 0.00 0.00 58 1013.9
20260504194542 81 175 2.0 6.0 0.00 0.00 0.00 58 1014.0
20260504194038 81 208 2.0 4.0 0.00 0.00 0.00 58 1014.2
20260504193535 81 182 3.0 6.0 0.00 0.00 0.00 58 1014.0
20260504193034 82 168 2.0 4.0 0.00 0.00 0.00 56 1014.2
20260504192531 81 222 0.0 4.0 0.00 0.00 0.00 59 1014.0
20260504192029 80 221 2.0 7.0 0.00 0.00 0.00 59 1014.1
20260504191527 81 243 5.0 11.0 0.00 0.00 0.00 58 1014.3
20260504191023 81 219 1.0 3.0 0.00 0.00 0.00 58 1014.5
20260504190519 81 235 3.0 6.0 0.00 0.00 0.00 57 1014.7
20260504190015 80 209 4.0 4.0 0.00 0.00 0.00 57 1014.5
20260504185512 81 73 2.0 9.0 0.00 0.00 0.00 57 1014.6
20260504185009 81 212 1.0 3.0 0.00 0.00 0.00 56 1014.5
20260504184504 81 210 2.0 3.0 0.00 0.00 0.00 56 1014.6
20260504184000 81 208 2.0 6.0 0.00 0.00 0.00 55 1014.8
20260504183457 80 234 4.0 7.0 0.00 0.00 0.00 56 1015.0
20260504182955 80 192 1.0 6.0 0.00 0.00 0.00 55 1014.8
20260504182452 81 207 4.0 8.0 0.00 0.00 0.00 55 1015.0
20260504181949 80 150 2.0 6.0 0.00 0.00 0.00 58 1015.1
20260504181446 80 220 4.0 9.0 0.00 0.00 0.00 57 1014.9
20260504180944 79 218 3.0 9.0 0.00 0.00 0.00 59 1015.1
20260504180443 79 141 1.0 8.0 0.00 0.00 0.00 60 1015.0
20260504175941 79 225 2.0 6.0 0.00 0.00 0.00 59 1015.2
20260504175438 79 259 4.0 6.0 0.00 0.00 0.00 58 1015.4
20260504174936 79 241 3.0 10.0 0.00 0.00 0.00 59 1015.4
20260504174433 79 213 4.0 7.0 0.00 0.00 0.00 58 1015.3
20260504173930 79 218 5.0 7.0 0.00 0.00 0.00 59 1015.4
20260504173426 78 255 2.0 4.0 0.00 0.00 0.00 60 1015.6
20260504172924 78 201 4.0 6.0 0.00 0.00 0.00 60 1015.4
20260504172420 78 161 2.0 3.0 0.00 0.00 0.00 61 1015.4
20260504171916 78 175 6.0 9.0 0.00 0.00 0.00 59 1015.8
20260504171414 79 142 2.0 6.0 0.00 0.00 0.00 60 1015.8
20260504170910 79 232 4.0 7.0 0.00 0.00 0.00 58 1015.8
20260504170407 78 252 5.0 8.0 0.00 0.00 0.00 58 1016.0
20260504160326 77 23 2.0 6.0 0.00 0.00 0.00 62 1016.6
20260504150750 74 201 2.0 7.0 0.00 0.00 0.00 66 1016.9
20260504150247 74 201 3.0 7.0 0.00 0.00 0.00 66 1017.1
20260504141217 71 213 1.0 4.0 0.00 0.00 0.00 68 1016.9
20260504140714 70 227 3.0 6.0 0.00 0.00 0.00 68 1016.9
20260504140209 70 201 1.0 3.0 0.00 0.00 0.00 70 1016.9
20260504130637 62 197 0.0 0.0 0.00 0.00 0.00 83 1016.5
20260504130134 61 197 1.0 1.0 0.00 0.00 0.00 85 1016.7
20260504110525 55 198 0.0 0.0 0.00 0.00 0.00 94 1016.2
20260504100442 55 198 0.0 0.0 0.00 0.00 0.00 95 1016.7
20260504081840 57 197 0.0 0.0 0.00 0.00 0.00 90 1017.4
20260504081337 57 197 0.0 0.0 0.00 0.00 0.00 91 1017.4
20260504080833 57 197 0.0 0.0 0.00 0.00 0.00 90 1017.4
20260504080330 57 197 0.0 0.0 0.00 0.00 0.00 89 1017.5
20260504070257 59 197 0.0 0.0 0.00 0.00 0.00 86 1018.3
20260504060218 60 197 0.0 0.0 0.00 0.00 0.00 79 1018.8
20260504050646 62 197 0.0 0.0 0.00 0.00 0.00 74 1019.1
20260504050143 62 197 0.0 0.0 0.00 0.00 0.00 72 1019.1
20260504045640 63 197 0.0 0.0 0.00 0.00 0.00 72 1019.1
20260504045140 63 197 0.0 0.0 0.00 0.00 0.00 71 1019.2
20260504044638 63 197 0.0 0.0 0.00 0.00 0.00 70 1019.3
20260504044135 63 220 0.0 0.0 0.00 0.00 0.00 71 1019.2
20260504043632 64 220 0.0 0.0 0.00 0.00 0.00 69 1019.4
20260504043129 64 198 0.0 0.0 0.00 0.00 0.00 68 1019.3
20260504042626 64 187 0.0 1.0 0.00 0.00 0.00 67 1019.2
20260504042123 64 216 0.0 0.0 0.00 0.00 0.00 67 1019.3
20260504041618 64 217 0.0 1.0 0.00 0.00 0.00 67 1019.2
20260504041115 65 215 0.0 1.0 0.00 0.00 0.00 67 1019.4
20260504040612 65 214 0.0 2.0 0.00 0.00 0.00 66 1019.4
20260504040109 65 191 0.0 0.0 0.00 0.00 0.00 65 1019.4
20260504035606 65 220 0.0 0.0 0.00 0.00 0.00 66 1019.4
20260504035102 65 229 1.0 1.0 0.00 0.00 0.00 65 1019.4
20260504034600 65 192 0.0 0.0 0.00 0.00 0.00 64 1019.4
20260504034056 66 191 0.0 1.0 0.00 0.00 0.00 64 1019.3
20260504033554 66 219 0.0 1.0 0.00 0.00 0.00 64 1019.3
20260504033052 67 221 1.0 1.0 0.00 0.00 0.00 62 1019.6
20260504032549 67 191 0.0 1.0 0.00 0.00 0.00 61 1019.3
20260504032045 67 197 0.0 0.0 0.00 0.00 0.00 61 1019.2
20260504031542 67 197 0.0 1.0 0.00 0.00 0.00 60 1019.1
20260504031038 67 203 1.0 2.0 0.00 0.00 0.00 59 1019.1
20260504030536 67 191 0.0 3.0 0.00 0.00 0.00 60 1019.1
20260504030032 68 190 2.0 2.0 0.00 0.00 0.00 59 1019.0
20260504025529 68 191 1.0 2.0 0.00 0.00 0.00 59 1019.0
20260504025026 68 189 2.0 3.0 0.00 0.00 0.00 58 1018.8
20260504024523 68 210 3.0 4.0 0.00 0.00 0.00 58 1019.0
20260504024020 68 156 2.0 4.0 0.00 0.00 0.00 59 1018.9
20260504023516 68 214 0.0 3.0 0.00 0.00 0.00 59 1019.0
20260504023012 68 197 0.0 2.0 0.00 0.00 0.00 59 1018.9
20260504022508 68 190 0.0 1.0 0.00 0.00 0.00 59 1018.9
20260504022005 69 210 0.0 3.0 0.00 0.00 0.00 58 1018.8
20260504021503 68 262 1.0 3.0 0.00 0.00 0.00 58 1018.8
20260504020959 68 204 1.0 2.0 0.00 0.00 0.00 59 1018.7
20260504020456 68 209 0.0 2.0 0.00 0.00 0.00 59 1018.6
20260504015953 68 191 0.0 0.0 0.00 0.00 0.00 60 1018.7
20260504015449 68 191 0.0 0.0 0.00 0.00 0.00 61 1018.5
20260504014945 69 191 0.0 0.0 0.00 0.00 0.00 57 1018.4
20260504014441 69 191 0.0 0.0 0.00 0.00 0.00 56 1018.4
20260504013938 70 191 0.0 0.0 0.00 0.00 0.00 55 1018.3
20260504013437 70 190 0.0 1.0 0.00 0.00 0.00 54 1018.4
20260504012932 71 187 0.0 2.0 0.00 0.00 0.00 53 1018.3
20260504012431 71 209 0.0 1.0 0.00 0.00 0.00 52 1018.3
20260504011928 71 186 1.0 1.0 0.00 0.00 0.00 51 1018.2
20260504011424 71 172 1.0 2.0 0.00 0.00 0.00 51 1018.2
20260504010920 72 204 1.0 2.0 0.00 0.00 0.00 50 1018.2
20260504010416 71 211 2.0 3.0 0.00 0.00 0.00 50 1018.2
20260504005913 71 191 0.0 0.0 0.00 0.00 0.00 51 1018.2
20260504005409 72 191 0.0 0.0 0.00 0.00 0.00 50 1018.3
20260504004907 73 191 0.0 0.0 0.00 0.00 0.00 50 1018.2
20260504004405 73 191 0.0 0.0 0.00 0.00 0.00 48 1018.2
20260504003901 74 191 0.0 0.0 0.00 0.00 0.00 48 1018.2
20260504003358 74 190 0.0 1.0 0.00 0.00 0.00 47 1018.3
20260504002854 75 190 0.0 1.0 0.00 0.00 0.00 46 1018.4
20260504002351 76 220 2.0 2.0 0.00 0.00 0.00 43 1018.4
20260504001849 77 191 0.0 0.0 0.00 0.00 0.00 43 1018.4
20260504001346 77 166 2.0 2.0 0.00 0.00 0.00 42 1018.2
20260504000843 77 190 1.0 4.0 0.00 0.00 0.00 41 1018.2
20260504000340 77 170 1.0 2.0 0.00 0.00 0.00 40 1018.4
20260503235837 78 207 0.0 3.0 0.00 0.00 0.00 40 1018.4
20260503235335 78 173 1.0 2.0 0.00 0.00 0.00 39 1018.4
20260503234832 79 218 2.0 3.0 0.00 0.00 0.00 38 1018.6
20260503234330 79 237 1.0 1.0 0.00 0.00 0.00 37 1018.3
20260503233827 79 221 1.0 4.0 0.00 0.00 0.00 39 1018.4
20260503233323 79 205 1.0 1.0 0.00 0.00 0.00 38 1018.5
20260503232820 78 210 2.0 4.0 0.00 0.00 0.00 37 1018.5
20260503232317 79 234 1.0 2.0 0.00 0.00 0.00 39 1018.5
20260503231815 80 177 1.0 2.0 0.00 0.00 0.00 36 1018.5
20260503231312 81 199 1.0 4.0 0.00 0.00 0.00 36 1018.7
20260503230808 81 207 2.0 3.0 0.00 0.00 0.00 36 1018.5
20260503230305 80 210 0.0 1.0 0.00 0.00 0.00 36 1018.7
20260503225803 79 229 0.0 3.0 0.00 0.00 0.00 38 1018.7
20260503225258 80 156 2.0 7.0 0.00 0.00 0.00 36 1018.7
20260503224755 79 206 2.0 3.0 0.00 0.00 0.00 37 1018.7
20260503224252 79 155 2.0 3.0 0.00 0.00 0.00 36 1019.0
20260503223750 79 167 4.0 4.0 0.00 0.00 0.00 36 1018.9
20260503223247 80 230 0.0 4.0 0.00 0.00 0.00 36 1018.8
20260503222743 80 204 1.0 2.0 0.00 0.00 0.00 37 1018.8
20260503222241 80 282 1.0 3.0 0.00 0.00 0.00 36 1019.0
20260503221739 80 168 0.0 2.0 0.00 0.00 0.00 36 1019.1
20260503221237 80 227 0.0 2.0 0.00 0.00 0.00 38 1019.3
20260503220733 79 225 0.0 3.0 0.00 0.00 0.00 37 1019.4
20260503220230 80 187 2.0 6.0 0.00 0.00 0.00 38 1019.5
20260503215727 81 156 0.0 2.0 0.00 0.00 0.00 37 1019.3
20260503215224 80 218 1.0 4.0 0.00 0.00 0.00 38 1019.1
20260503214722 80 232 2.0 3.0 0.00 0.00 0.00 37 1019.1
20260503214218 80 202 1.0 4.0 0.00 0.00 0.00 35 1019.1
20260503213717 81 208 0.0 4.0 0.00 0.00 0.00 35 1019.3
20260503213213 81 226 2.0 4.0 0.00 0.00 0.00 35 1019.5
20260503212710 81 147 2.0 3.0 0.00 0.00 0.00 36 1019.7
20260503212208 81 233 0.0 2.0 0.00 0.00 0.00 35 1019.9
20260503211706 82 227 3.0 4.0 0.00 0.00 0.00 34 1019.9
20260503211201 81 181 2.0 4.0 0.00 0.00 0.00 34 1020.0
20260503210657 81 210 1.0 4.0 0.00 0.00 0.00 34 1020.1
20260503210154 81 205 3.0 7.0 0.00 0.00 0.00 37 1020.0